Location: Muenchen
(48.1800°N, 11.5800°E)
Time: 19:46:45
(UTC+01:00)

ISS - Visible Passes

Search period start: 03 March 2015 00:00
Search period end: 13 March 2015 00:00
Orbit: 397 x 407 km, 51.6° (Epoch: 03 March)

Date Brightness Start Highest point End Pass type
(mag) Time Alt. Az. Time Alt. Az. Time Alt. Az.
10 Mar -0.7 06:01:28 10° S 06:03:44 18° SE 06:06:04 10° E visible
11 Mar -0.2 05:10:06 10° SE 05:10:43 10° SE 05:11:26 10° ESE visible
12 Mar -1.8 05:50:26 10° SSW 05:53:24 34° SE 05:56:23 10° E visible
